Weather History for Jasper, AL

Change the Weather History Date:

Monday, November 12, 2012

  Actual Average Record
Temperature  
Mean Temperature 50 °F -  
Max Temperature 64 °F 62 °F 80 °F (1985)
Min Temperature 35 °F 37 °F 20 °F (1960)
Degree Days  
Heating Degree Days 14    
Moisture  
Dew Point 47 °F    
Average Humidity 83    
Maximum Humidity 100    
Minimum Humidity 64    
Precipitation  
Precipitation 0.00 in - - ()
Sea Level Pressure  
Sea Level Pressure 30.28 in    
Wind  
Wind Speed 5 mph (NW)    
Max Wind Speed 17 mph    
Max Gust Speed 22 mph    
Visibility 8 miles    
Events Rain , Thunderstorm    
Averages and records for this station are not official NWS values.
T = Trace of Precipitation, MM = Missing Value Source: NWS Daily Summary

Daily Weather History Graph

Daily Weather History Graph

Search for Another Location

Airport:

Trip Planner

Search our weather history database for the weather conditions in past years. The results will help you decide how hot, cold, wet, or windy it might be!

Date:

Astronomy

Nov. 12, 2012 Rise Set
Actual Time 6:19 AM CST 4:47 PM CST
Civil Twilight 5:52 AM CST 5:13 PM CST
Nautical Twilight 5:22 AM CST 5:43 PM CST
Astronomical Twilight 4:53 AM CST 6:13 PM CST
Moon 4:46 AM CST (11/12) 3:50 PM CST (11/12)
Length of Visible Light 11h 20m
Length of Day
10h 28m
Waning Crescent, 2% of the Moon is Illuminated
Nov 12
Waning Crescent
Nov 13
New
Nov 20
First Quarter
Nov 28
Full
Dec 6
Last Quarter

Hourly Weather History & Observations

Time (CST) Temp. Windchill Dew Point Humidity Pressure Visibility Wind Dir Wind Speed Gust Speed Precip Events Conditions
12:15 AM 64.4 °F - 51.8 °F 64% 30.16 in 10.0 mi SSE 4.6 mph - N/A   Clear
12:35 AM 64.4 °F - 53.6 °F 68% 30.16 in 10.0 mi South 3.5 mph - N/A Rain Light Rain
12:55 AM 64.4 °F - 53.6 °F 68% 30.16 in 10.0 mi Calm Calm - N/A Rain Light Rain
1:15 AM 64.4 °F - 53.6 °F 68% 30.16 in 10.0 mi Calm Calm - N/A Thunderstorm Clear
1:35 AM 62.6 °F - 53.6 °F 72% 30.16 in 10.0 mi SSE 4.6 mph - N/A Rain Light Rain
1:55 AM 62.6 °F - 53.6 °F 72% 30.14 in 10.0 mi SE 5.8 mph - N/A   Clear
2:15 AM 64.4 °F - 53.6 °F 68% 30.16 in 10.0 mi South 3.5 mph - N/A   Clear
2:35 AM 62.6 °F - 53.6 °F 72% 30.18 in 10.0 mi West 4.6 mph - N/A   Mostly Cloudy
2:55 AM 62.6 °F - 53.6 °F 72% 30.16 in 8.0 mi Calm Calm - N/A Rain Rain
3:15 AM 57.2 °F - 57.2 °F 100% 30.20 in 10.0 mi Calm Calm - N/A   Scattered Clouds
3:35 AM 57.2 °F - 57.2 °F 100% 30.15 in 6.0 mi ESE 4.6 mph - N/A   Scattered Clouds
3:55 AM 57.2 °F - 57.2 °F 100% 30.16 in 10.0 mi Calm Calm - N/A   Clear
4:15 AM 57.2 °F - 57.2 °F 100% 30.17 in 3.0 mi Calm Calm - N/A Rain Rain
4:35 AM 57.2 °F - 57.2 °F 100% 30.16 in 4.0 mi ESE 4.6 mph - N/A Rain Light Rain
4:55 AM 57.2 °F - 57.2 °F 100% 30.14 in 3.0 mi SE 8.1 mph - N/A Rain Rain
5:15 AM 57.2 °F - 57.2 °F 100% 30.16 in 4.0 mi SSE 4.6 mph - N/A Rain Rain
5:35 AM 57.2 °F - 57.2 °F 100% 30.14 in 2.5 mi SSE 8.1 mph - N/A Rain Heavy Rain
5:55 AM 57.2 °F - 57.2 °F 100% 30.16 in 3.0 mi SE 8.1 mph - N/A Rain Heavy Rain
6:15 AM 57.2 °F - 57.2 °F 100% 30.15 in 2.5 mi SE 11.5 mph - N/A Rain Heavy Rain
6:55 AM 59.0 °F - 57.2 °F 94% 30.17 in 3.0 mi SSE 6.9 mph - N/A Rain Heavy Rain
7:15 AM 59.0 °F - 57.2 °F 94% 30.18 in 1.8 mi SW 4.6 mph - N/A Rain Rain
7:35 AM 59.0 °F - 59.0 °F 100% 30.20 in 1.8 mi West 9.2 mph - N/A Rain Heavy Rain
7:55 AM 59.0 °F - 57.2 °F 94% 30.20 in 1.8 mi West 5.8 mph - N/A Rain Heavy Rain
8:15 AM 59.0 °F - 59.0 °F 100% 30.21 in 2.0 mi West 4.6 mph - N/A Rain Rain
8:35 AM 57.2 °F - 57.2 °F 100% 30.22 in 1.2 mi NW 12.7 mph 17.3 mph N/A Rain Heavy Rain
8:55 AM 55.4 °F - 53.6 °F 94% 30.23 in 2.5 mi NW 5.8 mph - N/A Rain Light Rain
9:15 AM 55.4 °F - 53.6 °F 94% 30.23 in 5.0 mi NNW 3.5 mph - N/A Rain Light Rain
9:35 AM 55.4 °F - 53.6 °F 94% 30.25 in 2.5 mi NW 9.2 mph - N/A Rain Heavy Rain
9:55 AM 55.4 °F - 53.6 °F 94% 30.26 in 1.8 mi WNW 4.6 mph - N/A Rain Light Rain
10:15 AM 55.4 °F - 53.6 °F 94% 30.26 in 9.0 mi WNW 9.2 mph - N/A   Scattered Clouds
10:35 AM 55.4 °F - 53.6 °F 94% 30.27 in 10.0 mi NW 9.2 mph - N/A   Partly Cloudy
10:55 AM 55.4 °F - 51.8 °F 88% 30.26 in 9.0 mi NW 8.1 mph - N/A Rain Light Rain
11:15 AM 55.4 °F - 53.6 °F 94% 30.27 in 10.0 mi NW 8.1 mph - N/A Rain Light Rain
11:35 AM 55.4 °F - 53.6 °F 94% 30.27 in 10.0 mi NW 8.1 mph - N/A Rain Light Rain
11:55 AM 55.4 °F - 53.6 °F 94% 30.27 in 10.0 mi WNW 9.2 mph - N/A Rain Light Rain
12:15 PM 55.4 °F - 51.8 °F 88% 30.28 in 10.0 mi NW 12.7 mph 16.1 mph N/A   Mostly Cloudy
12:35 PM 55.4 °F - 51.8 °F 88% 30.28 in 9.0 mi WNW 9.2 mph 16.1 mph N/A Rain Light Rain
12:55 PM 55.4 °F - 51.8 °F 88% 30.28 in 10.0 mi NW 10.4 mph 16.1 mph N/A   Mostly Cloudy
1:15 PM 55.4 °F - 51.8 °F 88% 30.29 in 10.0 mi WNW 13.8 mph 18.4 mph N/A   Mostly Cloudy
1:35 PM 57.2 °F - 50.0 °F 77% 30.30 in 10.0 mi NW 17.3 mph 21.9 mph N/A Rain Light Rain
1:55 PM 55.4 °F - 48.2 °F 77% 30.30 in 10.0 mi NNW 13.8 mph 18.4 mph N/A   Mostly Cloudy
2:15 PM 55.4 °F - 48.2 °F 77% 30.30 in 10.0 mi NW 12.7 mph 16.1 mph N/A   Mostly Cloudy
2:35 PM 55.4 °F - 46.4 °F 72% 30.31 in 10.0 mi NNW 12.7 mph - N/A Rain Light Rain
2:55 PM 53.6 °F - 46.4 °F 77% 30.32 in 10.0 mi NNW 9.2 mph - N/A   Mostly Cloudy
3:15 PM 53.6 °F - 46.4 °F 77% 30.32 in 10.0 mi NNW 10.4 mph - N/A   Mostly Cloudy
3:35 PM 55.4 °F - 46.4 °F 72% 30.32 in 10.0 mi North 8.1 mph - N/A Rain Light Rain
3:55 PM 53.6 °F - 42.8 °F 67% 30.33 in 10.0 mi North 8.1 mph - N/A   Scattered Clouds
4:15 PM 53.6 °F - 42.8 °F 67% 30.33 in 10.0 mi North 4.6 mph - N/A   Clear
4:35 PM 51.8 °F - 42.8 °F 71% 30.33 in 10.0 mi North 5.8 mph - N/A   Clear
4:55 PM 48.2 °F - 39.2 °F 71% 30.34 in 10.0 mi NNW 6.9 mph - N/A Rain Light Rain
5:15 PM 48.2 °F - 39.2 °F 71% 30.35 in 10.0 mi NNW 5.8 mph - N/A Rain Light Rain
5:35 PM 46.4 °F 45.2 °F 39.2 °F 76% 30.36 in 10.0 mi North 3.5 mph - N/A Rain Light Rain
5:55 PM 46.4 °F 44.3 °F 37.4 °F 71% 30.37 in 10.0 mi NNW 4.6 mph - N/A Rain Light Rain
6:15 PM 46.4 °F - 37.4 °F 71% 30.37 in 10.0 mi Calm Calm - N/A Rain Light Rain
6:35 PM 44.6 °F 42.2 °F 37.4 °F 76% 30.38 in 10.0 mi NW 4.6 mph - N/A Rain Light Rain
6:55 PM 44.6 °F 41.4 °F 37.4 °F 76% 30.39 in 10.0 mi NW 5.8 mph - N/A Rain Light Rain
7:15 PM 42.8 °F 40.1 °F 35.6 °F 76% 30.40 in 10.0 mi NNW 4.6 mph - N/A Rain Light Rain
7:35 PM 42.8 °F 39.3 °F 35.6 °F 76% 30.40 in 10.0 mi NW 5.8 mph - N/A Rain Light Rain
7:55 PM 42.8 °F 40.1 °F 35.6 °F 76% 30.41 in 10.0 mi NNW 4.6 mph - N/A Rain Light Rain
8:15 PM 42.8 °F 41.1 °F 33.8 °F 70% 30.41 in 10.0 mi NW 3.5 mph - N/A Rain Light Rain
8:35 PM 41.0 °F 39.0 °F 33.8 °F 76% 30.41 in 10.0 mi NNW 3.5 mph - N/A Rain Light Rain
8:55 PM 41.0 °F 38.0 °F 33.8 °F 76% 30.41 in 10.0 mi NNW 4.6 mph - N/A Rain Light Rain
9:15 PM 41.0 °F 39.0 °F 33.8 °F 76% 30.42 in 10.0 mi North 3.5 mph - N/A Rain Light Rain
9:35 PM 39.2 °F 37.0 °F 32.0 °F 75% 30.42 in 10.0 mi NNW 3.5 mph - N/A Rain Light Rain
9:55 PM 39.2 °F 37.0 °F 32.0 °F 75% 30.41 in 10.0 mi North 3.5 mph - N/A Rain Light Rain
10:15 PM 39.2 °F 35.9 °F 32.0 °F 75% 30.41 in 10.0 mi NNW 4.6 mph - N/A   Clear
10:35 PM 39.2 °F 37.0 °F 32.0 °F 75% 30.42 in 10.0 mi NNW 3.5 mph - N/A   Clear
10:55 PM 37.4 °F - 32.0 °F 81% 30.42 in 10.0 mi Calm Calm - N/A Rain Light Rain
11:15 PM 37.4 °F - 32.0 °F 81% 30.41 in 10.0 mi Calm Calm - N/A Rain Light Rain
11:35 PM 37.4 °F - 32.0 °F 81% 30.41 in 10.0 mi Calm Calm - N/A   Clear
11:55 PM 35.6 °F - 32.0 °F 87% 30.42 in 10.0 mi Calm Calm - N/A   Clear